Location: ?????
(32.7281°N, 34.9563°E)
Time: 17:45:51
(UTC+00:00)

OAO 2 Rocket - Pass Details

Date: 29 October 2020
Orbit: 676 x 746 km, 35.0° (Epoch: 29 November)

Event Time Altitude Azimuth Distance (km) Brightness Sun altitude
Rises 15:20:05 0° 265° (W) 3,076 9.1 -6.6°
Reaches altitude 10° 15:22:31 10° 267° (W) 2,147 7.5 -7.1°
Maximum altitude 15:27:32 73° 352° (N) 718 3.4 -8.1°
Enters shadow 15:32:12 12° 77° (ENE) 2,011 5.0 -9.1°
